TITAN 3C TRANSTAGE DEB

Satellite information

Favourite Embed

Satellite Type and Status

DEBRISIN ORBIT

Key statistics

Satellite TITAN 3C TRANSTAGE DEB at a glance.

Uptime

21816

Days in orbit

Revolutions

≈ 14.6

Per day

Orbit

LEO

Low Earth Orbit

Inclination

31.9

Latest

Satellite identification and parameters

Extended collection of information and parameters for TITAN 3C TRANSTAGE DEB.

Object identification

Identified? True

Debris? True

Object name: TITAN 3C TRANSTAGE DEB

International designator: 1965-082FZ

Object number (NORAD): 1915

Object ID (CCSDS): 1915

Country: UNITED STATES OF AMERICA (US)

Current information (Y/N): Y

RCS size: SMALL

Orbital parameters

Period: 98.76 minutes

Inclination: 31.8753 deg

SMA: 7077.523 km

Apoapsis: 719.788 km

Periapsis: 678.987 km

RAAN: 165.6647 deg

Eccentricy: 0.0028824

Argument of periapsis: 39.5018 deg

Mean anomaly: 320.7716 deg

Mean motion: 14.5807835 rev/day

Mean motion (dot): 0.00000352 rev/day2

B* drag term: 0.00006588 1/REarth

Two-line elements (TLE)

Creation date: July 7, 2025, 6:34 p.m.

Reference frame: TEME

Reference center: EARTH

Epoch: July 7, 2025, 2:16 a.m. UTC

TLE line 0: 0 TITAN 3C TRANSTAGE DEB

TLE line 1: 1 01915U 65082FZ 25188.09457233 .00000352 00000-0 65880-4 0 9995

TLE line 2: 2 01915 31.8753 165.6647 0028824 39.5018 320.7716 14.58078350165010

Live tracking on map

Real-time ground track for satellite TITAN 3C TRANSTAGE DEB.

In-orbit conjunctions

A list of the most updated potential collisions computed for object TITAN 3C TRANSTAGE DEB.

Target Orbit TCA Probability of collision Miss distance Type
CZ-4 DEB SSO 2024-09-29 06:59:39 0.0001101948 496.0 (m) DEBRIS

Associated space launch

The OV2 (Orbiting Vehicle 2) series satellites were originally built for project ARENTS (Advanced Research Environmental Test Satellite), which was intended to obtain supporting data for the Vela program. After the cancellation of the ARENTS program, the already built hardware was reused for OV2, a low-cost series of experimental satellites, which were to be launched for free on Titan-3C test flights to very different orbits.

TITAN 3C TRANSTAGE DEB was lifted into orbit during the mission ‘Titan IIIC | OV2-1’, on board a Titan IIIC space rocket.

The launch took place on Oct. 15, 1965, 5:23 p.m. from Space Launch Complex 40.

For more information about the launch, click the button.

Launch to space Titan IIIC | OV2-1
Titan IIIC | OV2-1

Agency: N/A

Status: Launch Successful

Launch date: Oct. 15, 1965, 5:23 p.m. UTC

Rocket: Titan IIIC

Launch pad: Space Launch Complex 40

Location: Cape Canaveral SFS, FL, USA

...

Latest news about this satellite

There are no fresh news available about this satellite. Check back as we update our databases every day.


Newsletter sign-up

Weekly statistics, charts and insights to help you stay on top of the space industry.